User: anonymous   Login
Location: Unspecified
(0.0000°N, 0.0000°E)
Time: 02:03:30
(UTC+00:00)
Language:

ONEWEB-0560 - Orbit

View from above orbital plane
View from above orbital plane
View from above satellite
View from above satellite

Ground track
Ground track

The orbit is defined by the following mean orbital elements,

1 55145U          26145.46330975 +.00000000 +00000-0 +78849-4 0 00008
2 55145  87.9160 339.9827 0001557  84.1411 275.9899 13.18685372    04
Epoch (UTC): 25 May 2026 11:07:09
Eccentricity: 0.0001557
inclination: 87.9160°
perigee height: 1189 km
apogee height: 1191 km
right ascension of ascending node: 339.9827°
argument of perigee: 84.1411°
revolutions per day: 13.18685372
mean anomaly at epoch: 275.9899°

The dashed part of the orbit path shows where the satellite is in the earth's shadow,  

DLR